Other Public Products
Issued by NWS Grand Forks, ND

Home | Current Version | Previous Version | Graphics & Text | Print | Product List | Glossary On
Versions: 1 2 3 4 5 6 7 8 9 10 11 12 13 14 15 16 17 18 19 20 21 22 23 24 25 26 27 28 29 30 31 32 33 34 35 36 37 38 39 40 41 42 43 44 45 46 47 48 49 50
000
FPUS83 KFGF 181010
OPUFGF
PRAIRIE TO PINES WEATHER ROUNDUP
NATIONAL WEATHER SERVICE EASTERN NORTH DAKOTA/GRAND FORKS ND
400 AM CST WED JAN 18 2017

 **SATELLITE DATA USED TO AUGMENT SKY COVER AT AUTOMATED STATIONS**
 *****  WEATHER ACROSS EASTERN NORTH DAKOTA  *****

CITY           SKY/WX    TMP DP  RH WIND       PRES   REMARKS
GRAND FORKS    FAIR      27  18  69 S14       29.69S WCI  16
GRAND FORKS AF FAIR      23  17  80 S12       29.68S WCI  11
GRAND CITY NWS NOT AVBL
BUXTON         NOT AVBL
DEVILS LAKE    FAIR      26  22  84 CALM      29.68R
FARGO          FAIR      21  16  81 S10       29.76R WCI  10
WAHPETON ARPT  FAIR      21  18  86 SE8       29.78F WCI  12
$$

 *****  WEATHER ACROSS CENTRAL AND WESTERN NORTH DAKOTA  *****

CITY           SKY/WX    TMP DP  RH WIND       PRES   REMARKS
JAMESTOWN      FAIR      26  20  77 S5        29.71S WCI  20
BISMARCK       FAIR      19  14  81 NE3       29.76R
MINOT          FAIR      34  26  72 SW14      29.64F WCI  25
MINOT AFB      FAIR      34  27  75 W18       29.62F WCI  23
GARRISON         N/A     31  23  72 W6        29.69S
WILLISTON      FAIR      28  21  75 SE5       29.69S WCI  23
DICKINSON      FAIR      35  22  58 W9        29.72S
HETTINGER      FAIR      29  19  66 W7        29.77F WCI  22
$$

 *****  OTHER OBSERVATIONS NORTHEAST NORTH DAKOTA  *****

CITY           SKY/WX    TMP DP  RH WIND       PRES   REMARKS
WALHALLA       NOT AVBL
LANGDON        NOT AVBL
CAVALIER         N/A     32  25  74 SW10      29.62S WCI  24
GRAFTON        FAIR      23  19  86 SW10      29.68R WCI  12
CANDO          NOT AVBL
FORT TOTTEN      N/A     31  24  75 SW5       29.95S
ROLLA            N/A    N/A N/A N/A MISG        N/A
RUGBY            N/A     25  23  93 SW6       29.66R WCI  18
 ***** THE ABOVE OBSERVATIONS ARE NON NWS ARE NOT QUALITY
        CONTROLLED AND MAY MIS-REPORT RAIN FOR SNOW...
$$

 *****  OTHER OBSERVATIONS SOUTHEAST NORTH DAKOTA *****

CITY           SKY/WX    TMP DP  RH WIND       PRES   REMARKS
COOPERSTOWN    FAIR      25  19  80 SW14      29.69F WCI  13
VALLEY CITY    FAIR      23  19  86 SW5       29.74R WCI  17
OAKES          NOT AVBL
GWINNER        FAIR      27  21  80 SW13      29.78R WCI  16
SHEYENNE NWR     N/A     23  17  77 W8        29.95S WCI  14
BUFFALO        NOT AVBL
WYNDMERE       NOT AVBL
 ***** THE ABOVE OBSERVATIONS ARE NON NWS ARE NOT QUALITY
       CONTROLLED AND MAY MIS-REPORT RAIN FOR SNOW...
$$

  *****  WEATHER ACROSS NORTHERN MINNESOTA  *****

CITY           SKY/WX    TMP DP  RH WIND       PRES   REMARKS
FLAG ISLAND    FAIR      21  16  79 SW12      29.63R WCI   9
WARROAD        FAIR      23  18  80 SW8       29.64R WCI  14
ROSEAU         FAIR      23  18  80 SW13      29.64R WCI  11
HALLOCK        FAIR      18  16  93 S9        29.64R WCI   6
THF RVR FALLS  FAIR      22  17  81 SW18G26   29.68S WCI   7
HALSTAD        NOT AVBL
FOSSTON        FAIR      21  18  86 S18       29.72F WCI   6
BAUDETTE       FAIR      23  16  74 SW8       29.64S WCI  14
WASKISH        FAIR      27  19  74 S3        29.66F
CROOKSTON      FAIR      21  18  86 S14       29.72S WCI   8
$$
  *****  WEATHER ACROSS CENTRAL AND WEST MINNESOTA  *****

CITY           SKY/WX    TMP DP  RH WIND       PRES   REMARKS
BEMIDJI        FAIR      27  19  72 S8        29.70S WCI  19
PARK RAPIDS    FAIR      19  13  77 S7        29.75F WCI  10
WADENA         FAIR      25  19  80 SW7       29.77F WCI  17
DETROIT LAKES  FAIR      28  23  80 SW7       29.77R WCI  21
MOORHEAD       FAIR      19  16  86 S8        29.78R WCI   9
FERGUS FALLS   FAIR      21  19  93 S10       29.83F WCI  10
ELBOW LAKE     FAIR      20  19  94 S14       29.80F FOG     WCI   7
MORRIS MN      FAIR      19  19 100 S10       29.82F WCI   8
STAPLES        FAIR      19  18  93 S6        29.79F WCI  11
WHEATON        FAIR      32  27  80 S9        29.81F WCI  24
$$
  *****  WEATHER ELSEWHERE ACROSS MINNESOTA  *****

CITY           SKY/WX    TMP DP  RH WIND       PRES   REMARKS
DULUTH         FAIR      24  22  91 SW16      29.78F WCI  11
INTRNTL FALLS  FAIR      25  17  72 SW9       29.66R WCI  15
ELY            FAIR      25  19  80 SW12      29.71R WCI  14
CLOQUET        MOCLDY    25  21  86 S10G21    29.80F FOG     WCI  15
BRAINERD       FAIR      22  19  89 S10       29.81F WCI  11
HIBBING        FAIR      20  18  92 S5        29.75S WCI  13
ALEXANDRIA     FAIR      24  22  91 SW10      29.82F WCI  14
SAINT CLOUD    FAIR      22  21  96 S8        29.87F WCI  12
MINNEAPOLIS    FAIR      28  23  81 S8        29.95F WCI  20
$$

  *****  WEATHER ACROSS SOUTH DAKOTA  *****

CITY           SKY/WX    TMP DP  RH WIND       PRES   REMARKS
SIOUX FALLS    FAIR      30  27  88 S9        29.93F WCI  22
BROOKINGS      FAIR      23  21  92 SE7       29.90R WCI  15
WATERTOWN      FAIR      21  19  92 SW10      29.84F WCI  10
HURON          FAIR      21  20  96 MISG      29.88F
SISSETON         N/A     38  22  52 W9G16     29.76F
ABERDEEN       FAIR      17  11  77 S9        29.82F WCI   6
MITCHELL       FAIR      19  18  95 CALM      29.92S
PIERRE         FAIR      15  12  88 S5        29.85F WCI   8
MOBRIDGE       FAIR      17  10  74 SE9       29.77F WCI   6
RAPID CITY     FAIR      31  19  61 NW6       29.84F
$$

  *****  SOME WEATHER IN NEARBY STATES *****

CITY           SKY/WX    TMP DP  RH WIND       PRES   REMARKS
GLASGOW MT     FAIR      27  23  85 SE9       29.64F WCI  18
GREAT FALLS MT FAIR      41  25  53 SW18      29.65S
CHEYENNE WY    FAIR      23  12  62 W8        29.97S WCI  14
SCOTTSBLUFF NE FAIR      21  14  74 W6        29.96S WCI  13
OMAHA NE       FAIR      26  21  81 S10       30.07F WCI  16
DES MOINES IA  FAIR      30  28  92 SW5       30.09F
DAVENPORT IA   CLOUDY    34  32  92 W18       30.13S WCI  23
CHICAGO IL     CLOUDY    34  33  96 W9        30.07R FOG
EAU CLAIRE WI  CLOUDY    31  29  92 SW9       29.98R WCI  23
LA CROSSE WI   CLOUDY    35  30  82 S9        30.04S
$$

  *****  SOME NATIONAL WEATHER *****

CITY           SKY/WX    TMP DP  RH WIND       PRES   REMARKS
LA GUARDIA NY  CLOUDY    41  39  93 NE15      29.87F
RALEIGH NC     CLOUDY    61  55  81 SW8       29.94S
ATLANTA GA     CLOUDY    63  60  90 W9G17     30.10S
NEW ORLEANS LA FOG       68  68 100 S6        30.12S VSB 1/2
OKLAHOMA CITY  CLOUDY    41  37  86 SE3       30.13F
ALBUQUERQUE NM FAIR      34  33  96 SE5       30.13F
SALT LAKE CITY FAIR      21  17  84 CALM      30.19F
LOS ANGELES CA FAIR      50  48  93 E5        30.15S
BOISE ID       FAIR       9   5  84 CALM      30.12S FOG
SEATTLE WA     LGT RAIN  46  45  96 SE7       29.48F
$$

*** WEATHER ACROSS MANITOBA...SASKATCHEWAN AND ONTARIO ***
                ***ONTARIO***

CITY           SKY/WX    TMP DP  RH WIND       PRES   REMARKS
GERALDTON      CLOUDY    30  25  80 SW12      29.63F WCI  21
THUNDER BAY    MOCLDY     9   7  92 NW3       29.72F
SIOUX LOOKOUT  CLOUDY    27  19  74 SW9       29.57F WCI  17
TORONTO        CLOUDY    34  34 100 W6        29.86R
BIG TROUT LK   CLOUDY    28  25  86 W9        29.39R WCI  20
PICKLE LAKE    NOT AVBL
DRYDEN         PTCLDY    23  19  86 S10       29.57F WCI  12
KENORA         CLEAR     19  16  86 SW12      29.61R WCI   7
$$
                *** MANITOBA***

CITY           SKY/WX    TMP DP  RH WIND       PRES   REMARKS
BRANDON        CLEAR     19  16  86 W10       29.59S WCI   8
DAUPHIN        CLEAR     32  28  86 W13       29.55R WCI  22
ISLAND LAKE    CLOUDY    28  23  80 W8        29.49R WCI  20
PILOT MOUND      N/A     19  16  86 W2          N/A
THE PAS        PTCLDY    30  25  80 SE5       29.47R
THOMPSON       CLOUDY    34  30  86 NW5       29.45R
WINNIPEG       PTCLDY    19  16  86 S9        29.58S WCI   9
LYNN LAKE      MOCLDY    25  25 100 VRB2      29.41R FOG
CHURCHILL      LGT SNOW  10   7  85 N21G26    29.40R DRFTSNOWWCI  -9
GILLAM         CLOUDY    34  30  86 NW6       29.39R
$$
                ***SASKATCHEWAN***

CITY           SKY/WX    TMP DP  RH WIND       PRES   REMARKS
ESTEVAN        PTCLDY    28  23  80 SW13      29.62S WCI  18
KINDERSLEY     MOCLDY    36  30  80 S7        29.38F
LLOYDMINSTER   MOCLDY    32  28  86 S14G20    29.27S WCI  22
PRINCE ALBERT  CLOUDY    21  19  93 VRB2      29.38F
REGINA         PTCLDY    32  28  86 SW10      29.53F WCI  24
YORKTON        CLEAR     27  25  93 S12       29.52F WCC1F1C2F2C3F3C4F4C5F5C6F6C7F7C8F8C9F9CaFaCbFbCcFcCdFdCe!



USA.gov is the U.S. government's official web portal to all federal, state and local government web resources and services.